Regional Weather Roundup
Issued by NWS

Home | Current Version | Previous Version | Text Only | Print | Product List | Glossary Off
Versions: 1 2 3 4 5 6 7 8 9 10 11 12 13 14 15 16 17 18 19 20 21 22 23 24 25 26 27 28 29 30 31 32 33 34 35 36 37 38 39 40 41 42 43 44 45 46 47 48 49 50

000
ASUS43 KMKX 171800
RWRWI

WISCONSIN REGIONAL WEATHER ROUNDUP
NATIONAL WEATHER SERVICE MILWAUKEE/SULLIVAN WI
100 PM CDT THU AUG 17 2017

NOTE: "FAIR" INDICATES FEW OR NO CLOUDS BELOW 12,000 FEET WITH NO
SIGNIFICANT WEATHER AND/OR OBSTRUCTIONS TO VISIBILITY.

WIZ001-002-006>008-014>016-023>028-171900-
NORTHWEST WISCONSIN

CITY           SKY/WX    TMP DP  RH WIND       PRES   REMARKS
SUPERIOR ARPT  DRIZZLE   62  62 100 N6        29.63S
ASHLAND        LGT RAIN  64  63  96 N6        29.58S FOG
6HR MIN TEMP:  62; 6HR MAX TEMP:  64; 6HR PCP:  0.41;

HAYWARD        LGT RAIN  67  64  90 VRB3      29.58S
6HR MIN TEMP:  64; 6HR MAX TEMP:  67; 6HR PCP:  1.16;

SIREN          CLOUDY    64  62  94 N9G17     29.63R
CUMBERLAND     CLOUDY    68  63  83 NW14      29.59R
RICE LAKE      CLOUDY    72  65  78 NW12      29.59R
CHETEK         CLOUDY    72  65  80 NW3       29.57R
LADYSMITH      LGT RAIN  68  67  95 N7        29.58S
EAU CLAIRE     PTSUNNY   74  66  76 NW13      29.57R
MENOMONIE      CLOUDY    74  65  72 W15       29.58R
NEW RICHMOND   CLOUDY    64  62  93 NW14G22   29.64R
OSCEOLA        CLOUDY    65  65 100 NW13      29.67R
$$

WIZ003>005-009-010-017-018-171900-
NORTH CENTRAL WISCONSIN

CITY           SKY/WX    TMP DP  RH WIND       PRES   REMARKS
MANITOWISH WTR CLOUDY    69  68  96 S8        29.58S
ARBOR VITAE    CLOUDY    72  67  84 S9        29.57F
WOODRUFF       CLOUDY    72  67  84 S9        29.57F
RHINELANDER    CLOUDY    70  63  78 S8G18     29.59S
6HR MIN TEMP:  64; 6HR MAX TEMP:  72; 6HR PCP:  0.03;

EAGLE RIVER    CLOUDY    71  64  79 S8        29.58F
LAND O LAKES   PTSUNNY   72  65  78 SW7       29.59F
6HR MIN TEMP:  65; 6HR MAX TEMP:  73;

PHILLIPS       DRIZZLE   65  65 100 CALM      29.56F
6HR MIN TEMP:  64; 6HR MAX TEMP:  67; 6HR PCP:  0.23;

TOMAHAWK       RAIN      66  63  91 CALM      29.58S
MEDFORD        DRIZZLE   65  64  96 S12       29.55F
MERRILL        DRIZZLE   66  66 100 S8        29.58F
$$

WIZ029-030-035-036-043>047-171900-
CENTRAL WISCONSIN

CITY           SKY/WX    TMP DP  RH WIND       PRES   REMARKS
WAUSAU         LGT RAIN  67  66  97 S14G23    29.55F FOG
6HR MIN TEMP:  67; 6HR MAX TEMP:  72; 6HR PCP:  0.06;

MOSINEE        LGT RAIN  66  66 100 S14G20    29.59F
MARSHFIELD     LGT RAIN  68  65  90 SW18G28   29.56F FOG
6HR MIN TEMP:  67; 6HR MAX TEMP:  68; 6HR PCP:  0.02;

STEVENS POINT  CLOUDY    67  66  96 S15       29.60F
WAUPACA        PTSUNNY   76  66  69 S12G21    29.61F
WAUTOMA        CLOUDY    73  65  75 S15G21    29.61F
6HR MIN TEMP:  71; 6HR MAX TEMP:  74;

WISC RAPIDS    LGT RAIN  69  66  90 SW13G22   29.60F
6HR MIN TEMP:  68; 6HR MAX TEMP:  71; 6HR PCP:  0.03;

CAMP DOUGLAS   CLOUDY    72  64  78 SW13G24   29.61S
$$

WIZ011>013-019>022-031-037>040-048>050-171900-
NORTHEAST WISCONSIN

CITY           SKY/WX    TMP DP  RH WIND       PRES   REMARKS
ANTIGO         CLOUDY    72  65  77 S15       29.60F
SHAWANO        CLOUDY    77  65  68 SW7G16    29.59F
6HR MIN TEMP:  73; 6HR MAX TEMP:  80;

OCONTO         CLOUDY    74  69  85 S7        29.59S
STURGEON BAY   MOSUNNY   77  71  82 S13G22    29.60F
6HR MIN TEMP:  69; 6HR MAX TEMP:  78; 6HR PCP:  0.11;

GREEN BAY      PTSUNNY   76  68  76 SW9G20    29.60F
6HR MIN TEMP:  71; 6HR MAX TEMP:  79; 6HR PCP: TRACE;

MANITOWOC      LGT RAIN  72  66  83 SW8       29.64F
APPLETON       LGT RAIN  75  61  60 SW21G28   29.62F
CLINTONVILLE   PTSUNNY   77  63  61 SW17      29.59F
OSHKOSH        PTSUNNY   74  64  71 S16G29    29.63F
6HR MIN TEMP:  71; 6HR MAX TEMP:  79; 6HR PCP: TRACE;

$$

WIZ032>034-041-042-053>061-171900-
SOUTHWEST WISCONSIN

CITY           SKY/WX    TMP DP  RH WIND       PRES   REMARKS
LA CROSSE      CLOUDY    75  65  70 W16       29.62S
6HR MIN TEMP:  71; 6HR MAX TEMP:  76; 6HR PCP: TRACE;

SPARTA         CLOUDY    69  64  83 W14G21    29.62S
VIROQUA        CLOUDY    68  68 100 SW16G22   29.66F
6HR MIN TEMP:  65; 6HR MAX TEMP:  69; 6HR PCP:  0.02;

BOSCOBEL       CLOUDY    75  66  73 SW9       29.67F
6HR MIN TEMP:  70; 6HR MAX TEMP:  75; 6HR PCP:  0.02;

PRAIRIE DU CHI PTSUNNY   75  63  64 SW21G29   29.69S
PLATTEVILLE    CLOUDY    74  69  82 SW17G29   29.72F
$$

WIZ056-057-062-063-064-067-068-171900-
SOUTH CENTRAL WISCONSIN

CITY           SKY/WX    TMP DP  RH WIND       PRES   REMARKS
REEDSBURG      DRIZZLE   70  70 100 W14G25    29.65F
BARABOO/DELLS  CLOUDY    73  63  71 SW14G23   29.64F
LONE ROCK      CLOUDY    73  69  87 W13G18    29.66S
MINERAL POINT  CLOUDY    73  68  83 SW12G23   29.71F
MADISON        PTSUNNY   75  65  70 SW10G21   29.67F
6HR MIN TEMP:  72; 6HR MAX TEMP:  75;

MIDDLETON      PTSUNNY   76  65  70 SW15G24   29.68F
WATERTOWN      CLOUDY    74  66  75 W17G23    29.69R
MONROE         PTSUNNY   73  64  73 SW22      29.73F
JANESVILLE     LGT RAIN  73  64  73 SW18G25   29.73R
$$

WIZ051-052-058>065-066-070>072-171900-
SOUTHEAST WISCONSIN

CITY           SKY/WX    TMP DP  RH WIND       PRES   REMARKS
MILWAUKEE      LGT RAIN  78  69  73 SW21G28   29.68F HX  80
6HR MIN TEMP:  73; 6HR MAX TEMP:  82; 6HR PCP: TRACE;

WAUKESHA       CLOUDY    75  64  69 SW16G22   29.70F
MILWAUKEE/TIMM CLOUDY    77  63  61 S14G23    29.68F
RACINE         PTSUNNY   77  69  76 W8G18     29.71F
6HR MIN TEMP:  72; 6HR MAX TEMP:  80; 6HR PCP:  0.02;

KENOSHA        CLOUDY    78  67  68 SW13G24   29.70F HX  80
6HR MIN TEMP:  72; 6HR MAX TEMP:  81;

FOND DU LAC    PTSUNNY   77  63  61 SW17G26   29.64F
6HR MIN TEMP:  73; 6HR MAX TEMP:  79; 6HR PCP: TRACE;

SHEBOYGAN      CLOUDY    76  67  73 SW18G26   29.64F
6HR MIN TEMP:  73; 6HR MAX TEMP:  81; 6HR PCP: TRACE;

WEST BEND      LGT RAIN  72  68  88 SW10      29.66F
JUNEAU         CLOUDY    74  65  71 SW21G29   29.69F
$$

LSZ147-162-171900-
LAKE SUPERIOR

STATION/POSITION TIME  TEMP    WIND        PRES    WAVE
                       AIR SEA DIR/SP/G            HT/PER
                 (UTC) (F)     (DEG/KT/KT) (MB)    (FT/S)
W MID LAKE BUOY  1650   60 60   40/ 16/ 19 1001.7F   4/ 5
DEVILS ISLAND    1700   60      40/ 23/ 25 1001.8F
SAXON HARBOR     1730   64     300/  5/  7 1001.0R
$$

LMZ867-665-643>646-171900-
LAKE MICHIGAN

STATION/POSITION TIME  TEMP    WIND        PRES    WAVE
                       AIR SEA DIR/SP/G            HT/PER
                 (UTC) (F)     (DEG/KT/KT) (MB)    (FT/S)
S GREEN BAY BUOY 1730   76 72  200/ 16/ 19 1002.3F
N MID LAKE BUOY  1650   69 67  170/ 16/ 17 1004.5F   4/ 5
NORTHPORT PIER   1740   71     160/ 10/ 16 1003.0F
KEWAUNEE LAKESHO 1730   71     170/ 19/ 23 1002.7F
SHEBOYGAN LAKESH 1700   71     160/ 16/ 18 1003.8F
PORT WASHINGTON  1730   83     210/  9/ 15 1005.1F
ATWATER BUOY     1609   76 71  220/ 12/ 16 1006.1F
MILWAUKEE LAKESH 1730   78     200/ 16/ 22   N/A
S MID LAKE BUOY  1650   72 72  230/ 17/ 19 1006.6S   4/ 5
KENOSHA   LAKESH 1700   79     210/ 10/ 15 1006.1
$$

TC  - TEMPERATURE IN CELSIUS
VSB - VISIBILITY IN STATUTE MILES
WCI - WIND CHILL INDEX
HX  - HEAT INDEX




USA.gov is the U.S. government's official web portal to all federal, state and local government web resources and services.